User: anonymous   Login
Location: CNYAC Observatory
(43.2150°N, 74.9500°W)
Time: 03:22:00
(UTC-04:00)
Language:

Meteor 1-22 Rocket - Orbit

View from above orbital plane
View from above orbital plane
View from above satellite
View from above satellite

Ground track
Ground track

The orbit data is extracted from the following two-line orbital elements,

1 08294U 75087B   17262.62231897  .00000172  00000-0  87459-4 0  9993
2 08294  81.2071 290.4857 0105977 134.8498 226.1344 14.08568883158147
Epoch (UTC): 19 September 2017 14:56:08
Eccentricity: 0.0105977
inclination: 81.2071°
perigee height: 787 km
apogee height: 941 km
right ascension of ascending node: 290.4857°
argument of perigee: 134.8498°
revolutions per day: 14.08568883
mean anomaly at epoch: 226.1344°
orbit number at epoch: 15814

The dashed part of the orbit path shows where the satellite is in the earth's shadow,  

DLR